TimeEST,TemperatureF,Dew PointF,Humidity,Sea Level PressureIn,VisibilityMPH,Wind Direction,Wind SpeedMPH,Gust SpeedMPH,PrecipitationIn,Events,Conditions,WindDirDegrees,DateUTC
12:15 AM,39.2,25.0,57,30.34,10.0,North,11.5,18.4,N/A,,Clear,360,2012-12-06 05:15:00
12:35 AM,38.3,24.6,58,30.34,10.0,NNW,6.9,-,N/A,,Clear,340,2012-12-06 05:35:00
12:55 AM,36.7,24.6,62,30.35,10.0,Calm,Calm,-,N/A,,Clear,0,2012-12-06 05:55:00
1:15 AM,35.6,24.3,63,30.35,10.0,NNW,8.1,-,N/A,,Clear,340,2012-12-06 06:15:00
1:35 AM,35.6,23.9,62,30.35,10.0,North,4.6,-,N/A,,Clear,360,2012-12-06 06:35:00
1:55 AM,34.5,23.9,65,30.36,10.0,NNW,3.5,-,N/A,,Clear,340,2012-12-06 06:55:00
2:15 AM,32.7,23.9,70,30.37,10.0,North,4.6,-,N/A,,Clear,350,2012-12-06 07:15:00
2:35 AM,32.4,23.7,70,30.36,10.0,North,5.8,-,N/A,,Clear,350,2012-12-06 07:35:00
2:55 AM,32.5,23.7,70,30.37,10.0,NNW,3.5,-,N/A,,Clear,340,2012-12-06 07:55:00
3:15 AM,30.0,23.2,76,30.37,10.0,Calm,Calm,-,N/A,,Clear,0,2012-12-06 08:15:00
3:35 AM,30.0,23.7,77,30.37,10.0,NNW,4.6,-,N/A,,Clear,340,2012-12-06 08:35:00
3:55 AM,28.6,23.5,81,30.38,10.0,Calm,Calm,-,N/A,,Clear,0,2012-12-06 08:55:00
4:15 AM,28.4,23.2,81,30.38,10.0,North,3.5,-,N/A,,Clear,360,2012-12-06 09:15:00
4:35 AM,27.5,23.4,84,30.38,10.0,NNW,4.6,-,N/A,,Clear,340,2012-12-06 09:35:00
4:55 AM,27.1,22.5,83,30.38,10.0,NNW,4.6,-,N/A,,Clear,340,2012-12-06 09:55:00
5:15 AM,31.1,23.5,74,30.38,10.0,North,5.8,-,N/A,,Clear,350,2012-12-06 10:15:00
5:35 AM,31.8,23.5,71,30.38,10.0,North,4.6,-,N/A,,Clear,350,2012-12-06 10:35:00
5:55 AM,30.6,23.2,74,30.38,10.0,Calm,Calm,-,N/A,,Clear,0,2012-12-06 10:55:00
6:15 AM,30.7,23.4,74,30.39,10.0,North,5.8,-,N/A,,Clear,350,2012-12-06 11:15:00
6:35 AM,30.9,23.4,74,30.40,10.0,North,4.6,-,N/A,,Clear,350,2012-12-06 11:35:00
6:55 AM,30.2,23.2,75,30.40,10.0,Calm,Calm,-,N/A,,Clear,0,2012-12-06 11:55:00
7:15 AM,28.4,23.0,80,30.40,10.0,North,3.5,-,N/A,,Clear,10,2012-12-06 12:15:00
7:35 AM,25.7,22.5,88,30.41,10.0,NNW,3.5,-,N/A,,Clear,330,2012-12-06 12:35:00
7:55 AM,27.5,24.1,87,30.42,10.0,North,3.5,-,N/A,,Clear,350,2012-12-06 12:55:00
8:15 AM,29.8,25.7,85,30.43,10.0,NW,5.8,-,N/A,,Clear,320,2012-12-06 13:15:00
8:35 AM,33.6,25.7,73,30.43,10.0,North,3.5,-,N/A,,Clear,360,2012-12-06 13:35:00
8:55 AM,35.6,25.0,65,30.43,10.0,NNE,5.8,-,N/A,,Clear,20,2012-12-06 13:55:00
9:15 AM,36.7,23.7,59,30.43,10.0,NE,9.2,-,N/A,,Clear,50,2012-12-06 14:15:00
9:35 AM,38.3,23.9,56,30.43,10.0,ENE,9.2,-,N/A,,Clear,60,2012-12-06 14:35:00
10:15 AM,39.2,23.7,54,30.44,10.0,North,5.8,-,N/A,,Clear,10,2012-12-06 15:15:00
10:35 AM,40.1,23.5,52,30.43,10.0,NE,5.8,-,N/A,,Clear,50,2012-12-06 15:35:00
10:55 AM,40.5,22.8,49,30.43,10.0,NE,3.5,-,N/A,,Clear,50,2012-12-06 15:55:00
11:15 AM,41.5,23.2,48,30.42,10.0,ENE,3.5,-,N/A,,Clear,70,2012-12-06 16:15:00
11:35 AM,42.1,23.9,49,30.40,10.0,ESE,5.8,-,N/A,,Clear,120,2012-12-06 16:35:00
11:55 AM,41.9,23.2,47,30.39,10.0,Calm,Calm,-,N/A,,Clear,0,2012-12-06 16:55:00
12:15 PM,42.1,22.6,46,30.38,10.0,Calm,Calm,-,N/A,,Clear,0,2012-12-06 17:15:00
12:35 PM,43.3,23.2,45,30.37,10.0,East,3.5,-,N/A,,Clear,80,2012-12-06 17:35:00
12:55 PM,43.0,22.6,45,30.36,10.0,Calm,Calm,-,N/A,,Clear,0,2012-12-06 17:55:00
1:15 PM,43.7,23.5,45,30.35,10.0,Calm,Calm,-,N/A,,Clear,0,2012-12-06 18:15:00
1:35 PM,44.4,23.2,43,30.34,10.0,Calm,Calm,-,N/A,,Clear,0,2012-12-06 18:35:00
1:55 PM,44.2,22.6,42,30.33,10.0,South,4.6,-,N/A,,Clear,190,2012-12-06 18:55:00
2:15 PM,44.2,22.6,42,30.33,10.0,SE,4.6,-,N/A,,Clear,140,2012-12-06 19:15:00
2:35 PM,44.2,22.6,42,30.33,10.0,SSE,4.6,-,N/A,,Clear,150,2012-12-06 19:35:00
2:55 PM,44.6,22.8,42,30.33,10.0,SE,3.5,-,N/A,,Clear,130,2012-12-06 19:55:00
3:15 PM,44.6,22.8,42,30.32,10.0,SE,4.6,-,N/A,,Clear,140,2012-12-06 20:15:00
3:35 PM,44.4,22.8,43,30.33,10.0,Calm,Calm,-,N/A,,Clear,0,2012-12-06 20:35:00
3:55 PM,43.7,23.4,45,30.32,10.0,South,3.5,-,N/A,,Clear,170,2012-12-06 20:55:00
4:15 PM,42.1,23.9,49,30.33,10.0,SSE,3.5,-,N/A,,Clear,150,2012-12-06 21:15:00
4:35 PM,40.5,23.5,51,30.32,10.0,SE,3.5,-,N/A,,Clear,140,2012-12-06 21:35:00
4:55 PM,40.5,23.4,51,30.32,10.0,SE,3.5,-,N/A,,Clear,130,2012-12-06 21:55:00
5:15 PM,38.3,24.3,57,30.32,10.0,ESE,3.5,-,N/A,,Clear,110,2012-12-06 22:15:00
5:35 PM,37.2,24.6,60,30.32,10.0,Calm,Calm,-,N/A,,Clear,0,2012-12-06 22:35:00
5:55 PM,35.8,24.3,63,30.33,10.0,Calm,Calm,-,N/A,,Clear,0,2012-12-06 22:55:00
6:15 PM,32.9,24.6,72,30.32,10.0,Calm,Calm,-,N/A,,Clear,0,2012-12-06 23:15:00
6:35 PM,32.2,24.1,72,30.32,10.0,Calm,Calm,-,N/A,,Clear,0,2012-12-06 23:35:00
6:55 PM,31.1,24.6,77,30.32,10.0,Calm,Calm,-,N/A,,Clear,0,2012-12-06 23:55:00
7:15 PM,31.8,24.3,74,30.32,10.0,Calm,Calm,-,N/A,,Clear,0,2012-12-07 00:15:00
7:35 PM,29.8,24.6,81,30.32,10.0,Calm,Calm,-,N/A,,Clear,0,2012-12-07 00:35:00
7:55 PM,29.1,24.1,81,30.32,10.0,Calm,Calm,-,N/A,,Clear,0,2012-12-07 00:55:00
8:15 PM,29.3,24.6,83,30.32,10.0,Calm,Calm,-,N/A,,Clear,0,2012-12-07 01:15:00
8:35 PM,29.5,24.8,83,30.32,10.0,Calm,Calm,-,N/A,,Clear,0,2012-12-07 01:35:00
8:55 PM,28.9,24.8,84,30.32,10.0,Calm,Calm,-,N/A,,Clear,0,2012-12-07 01:55:00
9:35 PM,30.7,25.2,80,30.31,10.0,Calm,Calm,-,N/A,,Clear,0,2012-12-07 02:35:00
9:55 PM,28.9,25.3,86,30.31,10.0,Calm,Calm,-,N/A,,Scattered Clouds,0,2012-12-07 02:55:00
10:15 PM,29.7,25.7,85,30.31,10.0,Calm,Calm,-,N/A,,Scattered Clouds,0,2012-12-07 03:15:00
10:35 PM,32.0,28.2,86,30.31,10.0,Calm,Calm,-,N/A,,Mostly Cloudy,0,2012-12-07 03:35:00
10:55 PM,30.9,27.9,88,30.31,10.0,Calm,Calm,-,N/A,,Mostly Cloudy,0,2012-12-07 03:55:00
11:15 PM,32.9,29.3,87,30.30,10.0,ESE,3.5,-,N/A,,Overcast,120,2012-12-07 04:15:00
11:35 PM,34.0,30.4,87,30.30,10.0,Calm,Calm,-,N/A,,Overcast,0,2012-12-07 04:35:00
11:55 PM,34.7,30.2,84,30.30,10.0,Calm,Calm,-,N/A,,Overcast,0,2012-12-07 04:55:00